EDT,Max TemperatureF,Mean TemperatureF,Min TemperatureF,Max Dew PointF,MeanDew PointF,Min DewpointF,Max Humidity, Mean Humidity, Min Humidity, Max Sea Level PressureIn, Mean Sea Level PressureIn, Min Sea Level PressureIn, Max VisibilityMiles, Mean VisibilityMiles, Min VisibilityMiles, Max Wind SpeedMPH, Mean Wind SpeedMPH, Max Gust SpeedMPH,PrecipitationIn, CloudCover, Events, WindDirDegrees
2012-10-1,62,56,50,52,49,45,88,76,63,29.89,29.71,29.60,10,10,8,18,10,26,0.00,7,,228
2012-10-2,66,60,53,54,52,48,88,73,60,30.05,29.98,29.89,10,10,10,10,6,,0.00,4,,223
2012-10-3,60,60,59,57,56,55,88,85,82,30.16,30.10,30.04,10,8,2,10,4,,0.19,8,,63
2012-10-4,60,60,59,57,56,55,88,87,82,30.17,30.11,30.02,10,9,3,13,4,,0.00,8,,67
2012-10-5,75,66,57,57,55,54,88,74,47,30.01,29.95,29.87,10,10,7,10,5,,0.00,4,,232
2012-10-6,73,62,50,57,51,37,94,73,53,29.88,29.78,29.64,10,9,1,18,6,24,0.07,3,,246
2012-10-7,53,48,42,43,37,34,87,65,50,30.04,29.99,29.88,10,10,10,13,6,18,0.03,2,,242
2012-10-8,55,47,39,41,37,34,93,71,44,30.31,30.18,30.02,10,10,2,10,3,,0.01,3,,271
2012-10-9,55,46,37,45,40,34,93,79,63,30.31,30.24,30.15,10,10,1,15,3,20,0.00,7,,76
2012-10-10,51,48,46,48,44,39,88,84,71,30.15,29.93,29.69,10,8,2,15,4,23,0.09,8,,70
2012-10-11,55,50,44,43,32,27,87,54,35,30.06,29.95,29.74,10,10,10,20,10,29,0.00,3,,251
2012-10-12,48,42,35,36,28,18,71,53,37,30.32,30.08,29.92,10,10,10,24,10,33,0.00,4,,272
2012-10-13,50,40,30,32,24,21,80,55,32,30.41,30.34,30.26,10,10,10,17,5,25,0.00,1,,259
2012-10-14,50,44,37,45,40,25,93,84,46,30.27,30.06,29.90,10,8,1,9,3,,0.13,8,,257
2012-10-15,66,57,48,57,48,45,94,89,73,29.89,29.78,29.66,10,3,0,16,1,20,0.00,8,,205
2012-10-16,,,,,,,,,,,,,,,,,,,,,,
2012-10-17,,,,,,,,,,,,,,,,,,,,,,
2012-10-18,,,,,,,,,,,,,,,,,,,,,,
2012-10-19,,,,,,,,,,,,,,,,,,,,,,
2012-10-20,,,,,,,,,,,,,,,,,,,,,,
2012-10-21,,,,,,,,,,,,,,,,,,,,,,
2012-10-22,60,54,48,37,37,36,66,51,42,29.96,29.91,29.88,10,10,10,17,9,29,0.00,2,,286
2012-10-23,59,49,37,39,35,30,81,60,36,30.11,30.04,29.96,10,10,10,14,7,18,0.00,0,,261
2012-10-24,60,46,32,34,28,16,87,59,19,30.20,30.15,30.10,10,10,10,8,1,,0.00,1,,251
2012-10-25,60,50,39,43,37,28,87,65,45,30.31,30.24,30.21,10,10,3,12,3,,0.00,3,,39
2012-10-26,62,50,41,50,42,36,87,79,63,30.24,30.20,30.14,10,10,8,10,2,,0.00,1,,251
2012-10-27,64,58,53,52,50,45,88,71,59,30.08,30.03,30.00,10,10,5,12,6,,0.00,4,,46
2012-10-28,53,50,48,45,41,34,82,67,47,30.04,29.98,29.87,10,10,10,18,9,25,0.00,6,,62
2012-10-29,57,52,48,55,49,45,94,86,82,29.86,29.59,29.34,10,7,2,30,16,48,1.09,8,,60
2012-10-30,66,60,55,57,55,50,88,81,68,29.58,29.52,29.37,10,9,3,21,15,36,1.01,7,Thunderstorm,90
2012-10-31,59,54,48,54,46,39,88,74,58,29.54,29.49,29.46,10,10,1,13,5,21,0.18,7,,173